Wetbulb
76.50 77.15 78.42 72.53 63.30 63.05 59.26 60.21 64.82 62.94 63.93 67.09 67.29 65.17 64.37 65.75 63.43 60.69 73.33 72.36 72.94 74.14 75.43 77.01 77.66 77.53 77.76 77.72 77.42 77.36 77.34 77.21 77.15 77.26 77.32 76.97 76.70 76.51 76.16 76.05 75.72 75.67 76.14 76.30 75.72 75.92 75.97 75.95 75.70
77.19 75.61 73.27 68.64 60.42 57.17 58.93 62.77 62.34 64.77 66.38 68.08 67.09 66.27 65.06 64.36 69.36 69.94 71.77 73.95 74.82 75.04 76.59 76.79 77.79 78.23 77.74 77.74 77.20 76.96 77.07 77.04 77.14 76.75 76.88 76.72 76.53 76.27 76.17 75.78 75.47 75.96 76.32 75.97 76.11 76.06 76.33 76.22 76.11
75.06 73.94 68.44 64.33 62.42 56.71 58.22 62.98 63.76 65.56 67.24 66.81 66.04 67.84 66.35 65.88 69.04 71.24 74.29 74.86 75.44 74.48 76.74 77.84 77.28 77.35 77.46 77.40 76.33 76.10 75.74 76.07 76.09 76.66 76.73 76.28 76.27 76.38 76.30 76.27 76.10 76.17 76.25 75.83 75.42 76.27 75.70 75.61 75.61
73.40 71.27 69.42 61.65 57.36 60.16 60.78 63.83 65.10 65.07 66.49 67.49 67.00 64.52 68.33 71.15 70.46 73.21 74.82 75.31 75.65 76.05 77.00 76.92 77.42 77.27 77.45 77.29 76.74 77.44 76.42 76.71 76.09 75.72 75.86 76.44 76.62 76.51 76.49 76.66 76.46 75.97 75.70 75.22 75.79 75.64 75.36 75.53 75.17
74.43 70.35 63.04 59.79 58.66 61.81 64.03 64.88 65.38 64.43 65.25 66.13 66.48 64.06 65.83 70.57 73.29 74.54 74.73 74.98 74.69 75.28 76.20 77.46 77.78 77.31 77.20 77.30 76.80 76.48 76.40 75.79 76.37 76.14 76.13 75.94 75.83 75.94 75.89 75.61 75.70 75.83 75.83 76.13 75.00 74.64 74.48 74.20 74.05
68.40 68.82 60.72 57.37 58.95 62.50 64.52 65.75 65.55 64.71 66.04 66.29 66.11 65.57 67.14 72.16 73.01 74.13 74.63 74.49 74.90 75.13 76.12 76.91 76.94 76.67 76.99 76.78 76.97 76.24 76.67 75.77 76.34 76.05 75.88 75.78 76.30 75.90 75.95 76.25 76.15 75.99 75.70 74.92 74.53 74.42 74.37 74.14 74.33
64.60 63.90 59.11 59.32 59.32 60.72 62.76 66.67 63.84 64.80 65.56 65.68 68.26 64.42 68.46 70.36 72.99 73.96 74.09 74.71 74.73 75.01 75.88 76.46 77.02 76.11 76.72 76.75 76.61 75.95 75.74 75.99 75.52 76.11 75.83 76.42 76.42 76.19 76.09 75.89 75.86 75.47 74.83 74.89 74.45 74.70 74.31 74.50 75.31
67.58 65.89 59.58 60.23 59.26 59.34 64.50 64.81 65.82 65.80 65.23 69.48 68.94 64.55 65.72 70.83 72.39 72.68 72.98 73.41 74.04 75.54 76.13 76.73 77.14 76.66 77.52 77.05 76.20 75.05 75.65 75.82 75.82 74.92 75.57 75.76 76.07 75.91 75.47 75.30 75.77 75.09 75.17 75.42 75.22 74.00 73.81 74.16 74.62
68.19 62.51 59.63 59.45 59.99 61.66 65.46 64.38 66.62 67.66 66.99 67.31 68.08 68.40 70.81 72.70 72.57 72.08 72.40 72.33 73.73 74.55 75.45 76.30 76.58 76.38 77.06 76.25 76.32 75.28 75.15 75.62 73.98 74.88 75.47 76.03 75.25 74.54 74.44 74.94 75.14 75.70 76.08 75.86 75.70 75.11 74.70 74.39 74.89
65.10 62.50 60.88 64.33 64.43 62.57 64.41 65.32 65.33 64.69 64.27 65.79 67.12 69.98 71.92 72.61 72.12 71.12 71.20 70.64 72.22 73.06 74.24 75.11 75.52 75.62 75.78 75.56 76.27 76.16 75.80 74.85 75.14 76.22 77.07 76.75 76.84 76.22 75.84 75.48 75.27 75.11 75.06 75.58 76.14 75.99 75.32 74.94 75.84
65.49 61.71 64.63 64.75 65.95 65.41 64.43 64.87 66.52 64.90 64.06 65.63 65.59 68.80 70.80 71.24 71.48 71.41 71.25 71.37 72.00 73.95 74.49 74.72 75.29 75.40 75.08 75.18 77.92 76.76 75.24 75.36 75.53 76.12 75.15 75.85 76.06 75.76 75.48 75.95 75.73 76.98 76.39 76.25 75.22 74.94 73.67 75.37 75.36
62.41 65.14 65.63 65.45 65.65 64.78 64.18 65.72 63.32 65.70 66.06 67.15 68.37 70.16 70.66 70.38 70.85 70.97 70.94 71.45 72.26 73.54 74.13 74.73 75.28 75.61 75.38 75.46 74.79 74.75 74.73 74.62 73.50 74.24 76.02 76.44 75.65 76.49 77.47 76.34 77.76 76.69 76.82 74.37 75.61 74.67 73.55 74.89 75.34
63.21 64.32 64.82 65.20 64.93 65.07 66.26 64.22 63.55 65.74 67.55 68.39 69.69 69.99 69.77 70.27 70.78 71.17 72.00 72.81 73.26 73.02 74.11 74.41 74.70 75.41 75.32 75.42 75.05 74.79 74.56 73.03 73.39 75.42 76.71 76.74 76.78 77.10 77.06 78.23 76.89 76.73 75.78 75.48 74.61 74.58 71.61 71.82 75.02
64.98 64.07 64.06 64.70 64.70 65.13 63.52 64.55 64.79 65.97 68.72 67.61 68.55 68.88 69.60 69.84 70.48 71.44 72.00 71.81 72.44 73.37 73.73 74.61 74.49 75.11 75.41 74.97 74.69 73.75 73.72 72.17 74.90 76.07 76.37 76.87 76.66 77.45 77.04 76.93 76.78 76.69 76.59 76.18 75.40 74.83 73.70 72.66 75.33
64.56 60.99 63.40 64.40 64.13 63.76 65.09 61.38 62.32 66.47 68.38 66.50 67.49 68.42 69.16 69.93 70.96 71.08 71.96 72.14 72.99 73.48 74.09 74.22 74.24 74.77 74.83 74.46 73.85 73.10 72.71 71.32 75.04 75.14 76.47 77.08 77.61 77.62 78.03 77.19 77.10 77.97 78.33 77.96 76.24 75.56 75.84 73.62 74.74
59.81 61.16 57.26 62.95 63.86 64.62 64.12 58.33 62.80 65.66 66.14 65.28 66.68 67.63 68.31 69.69 70.57 71.59 72.34 72.58 73.02 73.23 73.75 74.45 73.95 73.64 73.86 73.39 74.42 73.15 71.00 74.06 75.06 75.25 76.44 77.33 77.80 78.28 78.61 77.15 77.76 79.01 77.91 77.55 76.68 76.59 74.97 74.76 73.45
58.78 54.33 55.89 58.61 64.40 63.36 63.13 59.01 63.37 66.53 66.89 65.18 66.36 67.50 67.98 69.13 70.35 71.76 72.29 72.57 72.68 73.31 73.89 74.08 74.10 73.54 73.31 74.04 74.46 74.37 74.77 74.68 75.10 75.69 76.22 77.55 77.80 77.91 78.00 77.11 78.95 79.75 78.86 77.81 78.07 76.60 75.76 76.12 75.26
52.33 53.52 55.58 56.85 62.05 62.78 61.52 61.34 63.79 66.23 66.31 65.66 66.14 67.07 67.86 68.38 69.48 71.32 72.13 72.75 73.26 73.58 74.20 74.58 74.50 74.36 74.56 74.02 74.08 73.83 73.88 74.70 75.25 75.44 76.15 77.41 77.33 77.96 78.19 77.07 78.10 78.51 76.89 77.62 78.43 76.37 77.43 75.85 75.88
55.42 54.96 55.01 58.33 61.95 61.12 61.46 61.38 62.97 65.13 65.88 65.60 66.40 66.87 67.38 68.01 69.03 71.64 72.06 72.65 73.10 73.51 74.04 74.42 74.36 74.55 73.91 72.82 71.97 72.17 72.13 73.85 74.78 75.50 77.02 77.87 77.54 77.78 78.43 76.33 76.63 77.10 76.68 76.98 77.54 77.45 76.14 75.89 77.33
54.22 53.75 55.15 59.76 61.63 61.77 62.00 61.41 63.86 64.82 65.03 66.04 66.05 66.99 67.62 67.61 69.22 69.75 71.58 72.21 72.53 73.01 73.80 74.25 74.70 75.11 74.32 72.93 72.91 73.11 73.97 74.37 74.14 75.46 76.98 77.57 77.69 78.26 77.16 76.79 75.97 77.78 75.79 77.06 76.93 77.25 76.49 75.48 76.39
55.42 53.95 55.20 56.29 59.95 62.53 61.07 59.83 61.44 64.67 65.91 66.24 66.91 67.65 67.93 68.37 68.48 67.13 71.07 71.70 72.54 72.71 73.41 74.07 74.76 75.25 74.57 74.11 73.69 74.59 74.47 75.11 76.26 75.24 77.96 76.53 78.38 77.78 77.87 78.08 77.71 78.08 77.65 75.73 77.48 76.67 76.55 73.46 75.94
53.07 56.55 57.34 56.67 57.02 53.98 60.09 52.60 58.33 61.64 62.80 65.20 65.98 66.32 67.28 67.91 68.67 69.73 70.92 71.37 71.99 72.80 73.86 74.42 75.07 75.11 74.97 74.73 74.15 74.14 71.74 73.01 74.35 73.37 74.47 78.44 77.84 77.90 78.03 78.00 78.28 77.39 78.50 77.20 76.88 76.50 76.66 75.69 73.90
54.31 58.37 57.71 56.76 56.27 55.07 56.84 54.64 57.44 60.59 59.65 62.49 65.21 66.61 67.48 68.34 68.49 69.30 70.53 71.42 72.41 72.96 73.07 73.92 74.96 75.31 75.37 75.27 75.47 73.77 72.64 73.45 73.53 73.38 75.16 77.89 78.68 77.39 77.71 78.10 77.94 77.22 77.21 78.09 77.89 76.98 77.59 76.14 74.78
59.23 58.03 57.52 57.80 56.29 49.33 53.05 52.53 54.16 56.88 59.28 61.93 63.83 66.33 67.55 67.84 68.59 70.01 71.02 71.76 72.21 72.98 73.14 73.35 74.06 74.86 75.27 75.16 75.34 74.75 73.04 73.91 72.75 73.92 73.63 74.14 74.92 76.07 77.65 77.43 77.23 77.64 76.99 76.67 77.20 77.45 77.38 76.88 76.65
57.53 54.61 48.67 48.40 49.76 47.47 54.42 51.23 54.80 58.45 61.27 62.89 63.40 65.94 67.78 68.58 68.38 69.70 70.10 70.97 72.08 72.36 72.69 72.87 73.81 74.09 74.86 74.74 74.79 74.30 73.85 74.89 74.41 74.00 73.56 74.08 73.84 74.25 75.75 78.23 76.94 76.41 77.34 77.30 77.48 78.09 76.21 76.80 75.95
56.04 53.69 48.93 42.39 45.54 47.58 54.93 50.10 54.64 60.56 62.71 64.50 64.73 66.40 67.85 68.16 68.80 69.68 70.85 71.29 71.74 72.17 72.88 72.94 73.41 73.92 74.26 74.50 74.86 75.22 74.61 73.43 73.63 73.85 73.39 73.75 73.84 74.72 77.37 77.93 77.40 77.21 77.52 77.37 77.69 76.27 75.99 77.10 75.49
54.29 52.52 54.71 49.60 50.06 47.78 51.96 53.87 59.81 61.85 62.04 63.10 64.41 65.76 66.82 67.72 68.43 69.45 71.13 71.79 71.77 72.17 72.95 73.25 73.39 74.02 74.45 74.05 74.93 75.03 74.86 74.39 73.49 74.67 74.58 73.50 75.03 75.66 77.38 77.83 77.29 76.41 77.11 77.26 77.81 75.64 76.02 76.66 76.49
54.03 55.65 49.89 50.02 44.13 44.13 49.41 50.87 52.52 59.13 60.42 62.28 63.45 64.98 66.61 68.25 68.52 69.14 70.59 71.76 72.39 72.94 73.36 73.81 74.14 74.00 74.31 74.42 74.67 74.59 74.81 75.04 74.85 74.80 74.58 74.26 73.95 76.13 77.16 77.01 76.93 77.30 76.78 77.63 77.88 76.19 77.07 76.46 75.59
52.01 51.31 51.83 51.55 50.41 46.86 46.61 50.35 57.16 59.67 62.36 62.28 63.40 65.20 66.84 67.99 68.96 69.55 69.84 72.27 72.74 73.20 73.43 73.58 73.78 73.97 73.95 74.21 74.42 74.72 74.55 74.77 74.98 74.23 74.60 74.89 75.03 74.92 76.82 76.54 77.28 76.70 76.84 77.46 76.78 76.86 75.71 75.99 76.24
54.98 53.19 52.95 48.64 49.20 50.13 50.07 50.07 58.12 61.35 63.46 64.50 64.49 65.56 66.67 68.37 69.61 70.51 71.07 71.70 71.96 72.41 72.94 73.44 74.01 73.92 74.03 74.25 74.39 74.11 74.82 74.90 74.38 74.32 74.42 74.83 74.56 75.36 75.38 77.29 77.27 76.78 76.62 77.17 76.86 76.31 75.50 75.72 75.75
MSLP
1010.83 1010.11 1009.93 1009.55 1008.77 1006.99 1006.67 1007.04 1007.03 1006.89 1007.09 1007.62 1007.96 1008.16 1008.55 1009.09 1009.48 1010.83 1011.96 1013.41 1013.71 1014.16 1014.30 1014.94 1015.42 1015.29 1015.52 1015.73 1015.91 1016.19 1016.44 1016.67 1016.77 1016.94 1017.05 1017.17 1017.26 1017.27 1017.40 1017.53 1017.56 1017.49 1017.45 1017.51 1017.55 1017.69 1017.84 1018.01 1018.09
1009.69 1010.00 1009.63 1008.58 1007.73 1006.29 1007.02 1007.29 1007.15 1007.46 1007.93 1008.06 1008.39 1008.57 1008.68 1009.52 1010.55 1011.49 1012.15 1013.43 1013.60 1014.08 1013.76 1014.59 1015.53 1015.59 1015.73 1015.98 1016.12 1016.39 1016.63 1016.85 1016.98 1017.10 1017.25 1017.24 1017.30 1017.39 1017.52 1017.60 1017.63 1017.67 1017.69 1017.74 1017.74 1017.76 1017.95 1018.12 1018.14
1010.01 1009.97 1008.69 1007.91 1007.33 1006.58 1007.37 1007.61 1007.87 1008.03 1008.27 1008.17 1008.41 1008.71 1009.11 1010.17 1011.31 1011.35 1011.73 1012.97 1013.59 1014.25 1013.90 1014.83 1015.67 1015.72 1015.87 1016.18 1016.30 1016.56 1016.78 1016.92 1017.07 1017.19 1017.34 1017.36 1017.45 1017.58 1017.68 1017.68 1017.79 1017.84 1017.88 1017.94 1017.98 1017.95 1018.05 1018.21 1018.27
1009.81 1009.62 1008.98 1007.77 1007.47 1007.93 1007.99 1008.10 1008.32 1008.31 1008.49 1008.60 1008.45 1008.89 1010.25 1011.13 1011.29 1011.52 1012.44 1012.92 1013.41 1013.98 1013.75 1015.45 1015.74 1015.87 1016.00 1016.29 1016.51 1016.69 1016.91 1017.04 1017.15 1017.28 1017.41 1017.48 1017.64 1017.73 1017.85 1017.85 1017.86 1017.91 1018.03 1018.07 1018.13 1018.11 1018.20 1018.26 1018.42
1009.53 1008.53 1007.33 1007.45 1008.01 1008.35 1008.42 1008.55 1008.52 1008.02 1008.36 1008.37 1008.59 1009.33 1010.39 1011.54 1011.81 1012.16 1012.64 1013.03 1013.47 1013.59 1014.21 1015.31 1015.85 1016.00 1016.21 1016.38 1016.68 1016.87 1017.03 1017.17 1017.28 1017.44 1017.52 1017.62 1017.71 1017.83 1017.94 1018.00 1017.96 1018.05 1018.11 1018.18 1018.21 1018.33 1018.37 1018.36 1018.48
1007.99 1008.22 1007.03 1007.26 1007.95 1008.45 1008.57 1008.75 1008.63 1008.52 1008.51 1008.70 1008.73 1009.34 1010.71 1011.78 1012.03 1012.32 1012.73 1013.04 1013.30 1013.98 1013.87 1015.12 1016.06 1016.27 1016.36 1016.55 1016.78 1017.00 1017.12 1017.24 1017.38 1017.51 1017.64 1017.69 1017.86 1018.03 1018.14 1018.11 1018.28 1018.33 1018.34 1018.34 1018.42 1018.50 1018.54 1018.48 1018.51
1007.94 1007.58 1007.50 1007.63 1007.96 1008.41 1008.52 1008.86 1009.14 1008.36 1008.28 1008.38 1008.72 1008.98 1010.90 1011.55 1012.10 1012.48 1012.87 1013.31 1013.60 1014.16 1014.22 1015.14 1015.52 1016.29 1016.56 1016.74 1016.95 1017.20 1017.30 1017.34 1017.54 1017.70 1017.87 1017.80 1017.99 1018.15 1018.20 1018.33 1018.40 1018.51 1018.56 1018.62 1018.50 1018.59 1018.51 1018.36 1018.34
1007.96 1007.88 1007.48 1007.66 1007.92 1008.34 1008.85 1009.24 1009.49 1008.42 1008.67 1008.91 1008.83 1008.76 1010.23 1011.49 1012.35 1012.63 1013.07 1013.54 1013.98 1014.63 1014.95 1015.14 1015.72 1016.17 1016.00 1016.43 1017.16 1017.35 1017.45 1017.56 1017.88 1017.89 1018.02 1017.96 1018.11 1018.18 1018.29 1018.45 1018.48 1018.62 1018.65 1018.67 1018.58 1018.66 1018.66 1018.54 1018.59
1008.44 1007.59 1007.28 1007.77 1008.04 1008.49 1009.12 1009.05 1009.31 1009.38 1008.68 1008.96 1009.27 1009.32 1009.79 1011.64 1012.34 1012.67 1013.09 1013.99 1014.54 1014.94 1014.98 1014.62 1015.54 1015.93 1015.77 1016.23 1017.07 1017.47 1017.66 1017.78 1018.00 1018.09 1018.12 1017.92 1017.05 1017.52 1017.94 1018.19 1018.38 1018.50 1018.46 1018.61 1018.67 1018.77 1018.91 1018.87 1018.80
1007.88 1007.76 1008.00 1008.64 1008.63 1008.73 1009.00 1009.02 1009.12 1009.25 1008.93 1009.07 1009.62 1010.19 1010.73 1011.66 1012.25 1012.54 1012.87 1013.83 1014.08 1014.63 1014.74 1014.47 1014.68 1015.23 1015.92 1016.22 1017.10 1017.13 1017.44 1017.69 1017.84 1018.09 1017.69 1017.25 1017.37 1017.34 1017.37 1018.02 1018.54 1018.57 1018.57 1018.60 1018.65 1018.72 1018.86 1018.86 1017.51
1008.09 1008.11 1008.51 1008.73 1009.22 1009.15 1008.90 1009.33 1009.32 1008.70 1008.18 1008.14 1008.77 1010.05 1010.83 1011.49 1012.07 1012.30 1012.68 1013.19 1013.80 1014.43 1014.90 1015.00 1015.26 1015.81 1016.10 1016.30 1016.96 1017.54 1017.15 1017.30 1017.72 1018.13 1018.26 1017.37 1017.39 1017.53 1017.39 1017.33 1017.72 1017.78 1018.32 1018.43 1018.61 1018.70 1018.73 1017.60 1017.50
1008.11 1008.68 1008.96 1009.09 1009.53 1009.34 1009.10 1009.53 1009.36 1008.38 1008.32 1008.50 1008.92 1010.02 1010.57 1011.11 1011.64 1012.02 1012.49 1013.13 1014.03 1014.42 1014.80 1015.16 1015.25 1016.09 1016.15 1016.20 1016.42 1016.48 1017.08 1017.27 1017.07 1017.96 1018.09 1017.52 1017.37 1017.46 1017.41 1017.01 1017.11 1017.78 1017.41 1018.64 1018.73 1018.74 1018.91 1018.29 1018.01
1007.93 1008.40 1008.92 1009.40 1009.63 1009.50 1009.57 1009.40 1009.27 1008.54 1008.75 1009.04 1009.48 1010.14 1010.46 1010.78 1011.36 1011.70 1012.17 1013.10 1014.14 1014.35 1014.67 1015.17 1015.80 1016.24 1016.35 1016.58 1016.33 1016.38 1016.47 1016.97 1016.78 1017.32 1017.59 1017.19 1016.99 1017.22 1017.16 1017.39 1017.21 1017.39 1017.91 1018.01 1018.31 1018.31 1019.11 1019.01 1018.20
1008.31 1008.35 1008.78 1009.17 1009.22 1009.32 1009.38 1009.12 1009.14 1008.71 1008.82 1009.22 1009.61 1009.97 1010.44 1010.64 1011.07 1011.63 1012.29 1013.36 1013.80 1014.38 1014.55 1014.90 1015.65 1016.02 1016.44 1016.48 1017.06 1017.34 1016.79 1017.84 1017.17 1016.88 1017.23 1017.77 1017.30 1017.22 1016.98 1017.25 1017.12 1017.33 1017.61 1017.66 1017.86 1018.10 1018.42 1018.86 1017.98
1008.29 1007.91 1008.25 1008.51 1008.90 1008.94 1009.40 1009.13 1008.82 1008.75 1008.56 1008.98 1009.34 1009.76 1010.16 1010.52 1010.99 1011.53 1012.17 1012.69 1013.46 1013.92 1014.56 1014.70 1015.43 1015.77 1016.44 1016.62 1017.13 1017.55 1017.69 1017.90 1017.07 1017.06 1017.44 1017.52 1017.57 1017.41 1017.34 1016.97 1017.01 1016.98 1017.28 1017.85 1017.99 1018.30 1018.02 1018.11 1017.77
1007.79 1007.89 1007.13 1007.72 1008.51 1008.74 1009.07 1008.07 1008.85 1009.02 1008.65 1008.53 1008.93 1009.38 1009.89 1010.29 1010.69 1011.25 1011.83 1012.72 1013.16 1013.62 1014.10 1014.79 1015.10 1015.61 1016.34 1016.72 1016.79 1017.27 1017.92 1017.10 1016.78 1016.75 1016.78 1017.27 1017.42 1017.47 1017.43 1016.88 1016.73 1016.83 1017.24 1017.36 1017.26 1017.61 1017.60 1017.56 1017.64
1007.06 1006.57 1006.82 1006.94 1007.92 1008.03 1008.37 1007.77 1008.40 1008.50 1008.19 1008.15 1008.55 1008.90 1009.40 1009.88 1010.42 1010.85 1011.41 1012.15 1012.49 1013.27 1013.98 1014.71 1015.10 1015.38 1016.06 1016.68 1016.63 1016.68 1016.88 1016.85 1016.54 1016.50 1016.63 1016.97 1017.11 1017.20 1017.06 1016.57 1016.68 1017.38 1016.87 1017.00 1017.43 1017.15 1017.31 1017.33 1017.57
1006.31 1006.14 1006.31 1006.49 1007.06 1007.75 1007.38 1007.17 1007.40 1007.63 1007.70 1007.75 1007.91 1008.16 1008.62 1009.09 1009.63 1010.39 1010.99 1011.62 1012.12 1012.87 1013.75 1014.39 1014.92 1015.31 1015.99 1016.32 1016.64 1016.40 1016.57 1016.44 1016.37 1016.31 1016.38 1016.78 1016.73 1016.93 1017.06 1016.58 1016.87 1017.10 1016.61 1016.89 1017.24 1017.46 1017.13 1017.14 1017.00
1006.64 1006.20 1005.89 1006.09 1006.87 1007.13 1006.74 1006.49 1006.22 1006.73 1007.00 1007.11 1007.41 1007.56 1007.70 1008.18 1009.22 1009.62 1010.58 1011.25 1011.80 1012.43 1013.25 1013.99 1014.77 1015.29 1015.83 1016.14 1016.17 1016.17 1016.21 1016.40 1016.27 1016.19 1016.40 1016.64 1016.69 1016.70 1016.92 1016.45 1016.67 1016.84 1016.93 1016.98 1017.17 1017.34 1017.15 1016.70 1016.98
1006.06 1005.83 1005.13 1006.06 1006.68 1006.93 1006.13 1005.52 1005.25 1005.39 1005.88 1006.28 1006.61 1006.98 1007.27 1007.84 1009.02 1009.54 1010.09 1010.78 1011.32 1012.06 1012.86 1013.57 1014.38 1015.09 1015.62 1015.80 1015.86 1015.88 1016.00 1016.05 1016.54 1015.91 1016.09 1016.38 1016.39 1016.58 1016.64 1016.68 1016.40 1016.60 1016.57 1016.94 1017.13 1017.23 1016.85 1016.68 1016.82
1004.74 1004.72 1004.90 1005.55 1006.02 1006.21 1005.89 1004.06 1003.74 1004.10 1004.74 1005.45 1005.97 1006.26 1006.70 1007.11 1007.88 1009.29 1009.53 1010.23 1010.89 1011.50 1012.35 1013.13 1014.06 1014.68 1015.35 1015.54 1015.87 1016.19 1016.43 1016.43 1016.18 1015.84 1016.10 1015.93 1016.09 1016.22 1016.49 1016.63 1016.51 1016.63 1016.81 1016.16 1016.91 1016.88 1016.94 1016.23 1016.61
1004.23 1004.71 1004.97 1005.20 1005.13 1004.47 1005.38 1003.00 1002.87 1003.13 1003.72 1004.13 1004.84 1005.50 1005.76 1006.49 1007.14 1008.21 1008.60 1009.60 1010.29 1011.01 1011.81 1012.62 1013.59 1014.29 1015.04 1015.55 1015.45 1015.55 1015.45 1016.01 1016.12 1015.96 1015.98 1015.92 1016.16 1016.05 1016.17 1016.32 1016.37 1016.62 1016.31 1016.55 1016.51 1016.50 1016.83 1017.08 1015.99
1004.17 1004.96 1004.60 1004.74 1004.38 1004.52 1004.06 1003.50 1002.10 1002.90 1002.46 1003.07 1003.75 1004.11 1004.96 1005.40 1006.23 1006.98 1007.83 1008.79 1009.60 1010.60 1011.32 1012.16 1013.20 1013.92 1014.43 1015.07 1015.35 1015.47 1015.46 1015.07 1015.65 1016.19 1016.28 1016.22 1016.25 1016.15 1015.92 1016.00 1016.04 1016.35 1016.44 1016.36 1016.69 1016.71 1016.75 1016.46 1016.11
1004.78 1004.38 1004.01 1003.95 1003.53 1003.66 1003.64 1003.58 1001.25 1001.80 1002.38 1002.73 1003.11 1003.39 1004.17 1004.85 1005.68 1006.45 1007.43 1008.40 1009.15 1010.16 1010.97 1011.69 1012.74 1013.53 1014.15 1014.65 1015.20 1015.40 1015.18 1015.11 1015.10 1015.50 1015.65 1015.45 1015.43 1015.48 1015.67 1015.63 1016.05 1016.00 1016.17 1016.19 1016.25 1016.54 1016.66 1016.64 1016.40
1004.39 1003.17 1002.25 1001.88 1001.53 1001.89 1003.05 1003.26 1001.79 1001.95 1002.27 1002.54 1002.67 1003.08 1003.80 1004.61 1005.35 1006.17 1007.11 1007.92 1008.83 1009.66 1010.55 1011.25 1012.25 1013.05 1013.67 1014.22 1014.63 1015.11 1015.28 1015.41 1015.37 1015.49 1015.17 1014.97 1014.91 1014.98 1015.00 1015.68 1015.76 1015.66 1015.83 1015.90 1015.90 1016.24 1016.42 1016.50 1016.49
1003.30 1002.65 1001.68 1001.43 1001.02 1001.13 1002.14 1001.70 1001.48 1002.03 1002.18 1002.48 1002.84 1003.04 1003.73 1004.42 1005.15 1005.96 1006.89 1007.85 1008.59 1009.36 1010.23 1010.85 1011.66 1012.43 1012.99 1013.61 1014.12 1014.61 1014.99 1014.86 1014.93 1015.07 1014.79 1014.92 1014.67 1014.56 1014.83 1015.09 1015.21 1015.33 1015.52 1015.65 1015.77 1015.82 1016.00 1016.00 1016.26
1002.29 1002.69 1001.76 1001.44 1001.52 1001.39 1000.83 1000.78 1001.37 1001.78 1001.71 1002.22 1002.53 1003.03 1003.62 1004.42 1005.09 1005.82 1006.50 1007.51 1008.26 1008.92 1009.77 1010.45 1011.18 1011.91 1012.41 1012.89 1013.60 1014.04 1014.46 1014.70 1014.33 1014.55 1014.84 1014.79 1014.89 1014.66 1014.98 1014.93 1015.25 1015.25 1015.33 1015.48 1015.70 1015.55 1015.76 1015.84 1015.95
1002.37 1001.77 1001.67 1001.30 1000.93 1000.34 1000.07 1000.41 1000.05 1000.95 1001.42 1001.90 1002.25 1002.63 1003.31 1004.10 1005.03 1005.52 1006.08 1006.93 1007.64 1008.39 1009.37 1010.19 1010.76 1011.39 1011.85 1012.31 1012.85 1013.32 1013.74 1014.13 1014.35 1014.50 1014.62 1014.53 1014.52 1014.69 1014.82 1015.04 1015.01 1015.24 1015.23 1015.36 1015.48 1015.36 1015.39 1015.64 1015.55
1002.04 1001.73 1001.43 1000.58 1000.65 999.84 999.65 999.33 1000.11 1000.45 1000.92 1001.43 1001.90 1002.15 1002.87 1003.58 1004.44 1005.23 1006.05 1006.66 1007.32 1008.04 1008.77 1009.64 1010.24 1010.76 1011.25 1011.61 1012.03 1012.53 1012.88 1013.29 1013.79 1013.83 1013.98 1014.12 1014.28 1014.48 1014.56 1014.70 1014.80 1014.87 1014.92 1015.04 1015.11 1015.28 1015.35 1015.34 1015.32
1000.42 1000.22 1000.34 1000.30 1000.36 1000.27 1000.09 999.38 999.88 1000.23 1000.58 1001.10 1001.53 1002.20 1002.44 1003.13 1004.02 1004.79 1005.55 1006.53 1007.10 1007.81 1008.42 1009.16 1009.76 1010.09 1010.41 1010.79 1011.43 1011.80 1012.31 1012.67 1012.82 1013.10 1013.23 1013.45 1013.71 1013.93 1014.11 1014.20 1014.35 1014.53 1014.59 1014.64 1014.68 1014.65 1014.39 1014.63 1014.75
Wind_Speed
11 8 1 4 6 6 4 6 2 5 5 2 7 2 8 7 9 6 10 8 18 14 12 13 10 12 13 13 13 12 12 11 11 9 10 8 7 6 5 5 5 5 5 6 6 7 7 7 6
5 3 4 2 6 6 6 5 8 9 8 8 9 5 3 8 7 9 14 14 17 16 14 13 9 10 13 13 13 11 11 10 9 8 8 7 7 6 6 6 5 6 7 7 6 6 7 7 7
2 3 5 4 3 3 6 8 6 6 5 3 5 3 3 5 4 11 15 19 16 7 11 15 10 11 13 13 12 10 10 8 7 7 8 7 7 6 7 7 6 7 7 6 6 5 5 5 7
4 4 3 4 6 7 6 9 6 7 6 2 4 8 8 7 6 6 16 16 15 13 12 14 12 12 13 12 10 9 9 7 6 7 7 7 7 7 7 7 7 7 6 6 5 5 4 5 5
4 3 2 7 7 8 4 5 0 4 3 4 2 6 8 7 7 14 16 13 14 12 11 13 10 11 12 12 10 7 8 7 7 6 6 7 8 7 7 7 6 5 6 6 5 4 3 2 2
3 4 4 8 6 4 4 1 2 2 4 6 6 8 8 9 12 13 15 12 12 10 12 12 9 6 10 10 10 8 7 6 7 7 8 7 7 7 7 6 6 5 5 4 4 3 2 1 2
5 4 6 6 5 5 3 2 2 1 6 6 5 5 8 11 13 14 13 10 10 9 9 9 11 8 9 10 9 7 7 8 8 9 7 9 7 8 6 5 5 4 4 3 3 3 3 3 6
4 4 3 4 5 3 5 3 2 2 6 6 2 5 10 15 14 13 13 12 11 8 9 8 8 9 9 10 10 9 9 10 10 10 7 8 7 6 6 5 6 3 3 4 4 3 4 2 4
2 5 5 7 5 4 6 5 7 1 7 3 4 5 14 19 16 14 13 9 10 9 10 13 11 10 7 8 10 9 10 11 9 6 6 8 6 8 8 8 5 5 5 5 6 6 6 5 5
5 5 8 6 4 2 5 2 4 4 6 6 6 8 17 20 17 16 15 13 13 11 10 8 9 9 7 5 10 9 9 6 5 2 6 4 2 2 5 3 4 4 5 6 7 8 8 8 8
2 5 6 2 5 5 5 7 5 8 9 4 7 13 18 17 17 16 14 14 13 12 7 6 7 7 8 6 7 4 6 5 5 5 4 4 4 5 6 4 6 5 8 2 3 1 3 8 6
5 2 5 5 1 3 5 4 2 5 8 4 10 16 18 17 16 15 13 14 12 11 10 9 9 8 6 6 6 7 6 5 5 6 8 4 5 3 2 3 2 4 2 4 2 2 3 9 6
5 2 2 1 3 3 3 6 3 7 6 9 15 15 16 15 14 12 13 12 10 11 11 9 8 8 7 6 5 6 6 5 6 7 6 3 2 3 4 2 3 2 1 4 4 4 1 4 8
2 4 0 2 3 4 7 6 4 6 9 12 14 15 14 14 13 11 11 13 13 10 11 11 10 9 8 7 6 2 5 4 5 4 5 5 5 3 3 4 3 3 2 3 3 4 4 4 5
1 8 2 6 5 3 7 9 10 2 12 13 13 13 13 12 12 12 12 10 11 12 11 11 10 10 9 7 9 6 3 5 6 4 5 5 5 5 4 4 4 3 3 3 4 5 5 5 6
5 5 6 6 6 4 8 3 8 6 12 14 13 12 12 13 13 11 11 10 11 11 12 11 10 11 10 8 7 6 5 7 5 5 4 5 5 5 5 4 3 2 3 3 4 5 5 4 4
5 8 7 2 7 2 10 2 9 11 12 12 12 12 12 12 12 11 11 11 11 12 12 11 11 11 11 9 7 7 7 6 6 5 5 6 6 6 6 4 1 2 2 3 1 4 5 1 3
9 11 8 5 4 8 9 10 8 14 14 14 13 12 12 13 14 13 12 12 11 12 13 12 10 10 10 8 6 6 5 6 5 5 5 5 5 6 5 4 3 4 4 2 2 5 2 4 4
10 12 10 3 1 6 9 11 9 12 14 15 15 14 14 12 6 12 13 13 13 13 13 13 12 11 9 8 8 7 6 6 5 6 5 6 5 6 5 5 4 5 4 3 3 3 4 2 1
10 11 3 6 0 6 9 14 12 15 17 17 17 15 14 12 14 9 14 15 14 14 14 14 13 13 10 8 7 6 4 6 6 6 5 7 6 6 6 4 4 2 5 3 4 4 5 1 1
11 5 7 5 1 7 9 14 8 14 17 18 18 16 16 15 14 12 16 16 15 15 15 15 14 14 12 10 8 6 4 5 6 6 5 6 6 7 6 5 5 2 6 4 2 4 4 4 2
11 4 4 2 7 5 2 5 3 5 8 16 19 19 18 17 15 16 17 17 16 14 14 15 15 14 13 12 10 9 7 4 4 5 6 3 7 7 7 6 5 4 6 3 3 4 4 5 2
3 4 3 4 7 7 8 7 8 4 5 8 13 19 19 17 17 16 17 16 15 14 13 14 15 15 14 13 11 9 9 7 6 4 3 5 5 5 7 5 5 5 3 2 4 3 3 3 5
1 7 7 6 7 6 3 5 4 4 6 2 3 12 18 17 16 16 16 15 13 13 12 13 15 15 15 14 14 11 10 7 6 7 5 6 5 7 8 7 5 5 5 5 5 4 5 5 4
9 12 6 4 6 4 6 3 7 5 4 6 3 11 16 15 16 15 15 14 14 14 14 13 15 15 15 15 14 12 12 11 8 7 7 5 5 6 6 7 7 6 6 4 4 5 4 5 4
14 14 9 4 5 6 7 2 4 5 6 2 2 9 14 15 15 15 15 14 15 15 14 14 15 14 16 15 15 12 12 9 9 9 8 6 5 5 2 6 6 7 6 5 5 6 6 5 4
8 10 9 11 9 9 3 3 7 4 4 3 7 11 13 15 13 13 14 15 15 16 15 15 14 14 15 16 14 14 12 13 10 10 8 8 8 6 6 6 6 6 7 7 5 6 5 5 5
14 6 9 10 6 8 8 4 9 4 5 5 8 11 13 14 15 12 13 13 14 15 14 14 14 14 14 14 14 13 14 13 13 11 12 11 9 8 7 7 7 7 8 7 8 6 5 7 6
8 11 10 9 6 7 5 5 6 3 6 8 7 10 13 14 14 14 11 12 13 13 14 14 14 14 14 14 14 13 13 14 13 13 13 12 11 10 9 9 8 8 8 7 7 8 8 8 8
12 8 11 9 12 7 10 7 4 3 5 8 10 8 11 12 13 12 13 13 12 13 13 14 13 14 14 13 13 14 13 13 14 14 14 13 12 12 12 11 10 9 9 9 9 10 10 11 10
Wind_Direction
172 186 203 234 243 243 129 99 93 114 101 69 101 46 52 28 8 41 129 99 142 140 152 158 147 134 126 118 117 112 113 113 115 114 119 123 120 121 127 107 95 91 96 95 94 100 107 108 106
155 181 228 258 263 203 117 105 93 72 88 105 119 126 80 78 56 112 139 149 135 162 156 150 145 134 118 116 110 110 109 113 120 127 125 122 125 121 117 109 108 103 104 94 96 93 90 95 95
177 261 270 300 303 311 125 99 93 86 105 157 112 39 27 55 79 140 116 143 145 117 167 114 146 129 123 118 113 117 117 121 121 126 124 135 127 118 119 114 114 101 104 105 105 98 88 81 87
210 193 192 320 4 87 126 98 88 116 109 117 118 86 96 65 125 139 138 146 145 159 140 131 147 134 126 124 123 127 122 123 135 126 131 138 132 121 118 120 112 113 117 123 114 103 97 88 90
230 242 307 75 89 113 138 95 49 151 117 127 191 110 93 80 114 131 142 155 142 142 147 146 142 140 138 133 129 129 130 137 137 133 136 131 132 117 126 125 124 125 126 129 123 112 94 89 106
244 274 15 33 91 142 159 154 295 179 150 130 134 120 89 111 145 144 147 152 159 146 153 137 134 147 146 143 144 150 135 147 146 139 130 135 125 124 127 132 127 136 139 153 130 135 108 77 73
321 311 17 4 54 171 183 168 112 222 150 121 127 121 109 137 134 145 146 153 144 177 132 155 154 159 151 148 147 142 135 139 135 125 117 124 130 127 131 125 130 148 166 172 182 156 146 159 116
307 287 336 9 358 86 150 125 156 208 85 108 231 136 154 140 153 148 146 158 148 144 170 144 152 158 178 147 139 139 137 133 133 131 130 137 138 131 136 157 147 168 181 205 220 204 204 170 144
284 264 341 358 334 69 148 169 180 18 143 98 83 68 120 144 155 152 153 142 161 171 172 159 165 171 176 149 136 139 134 133 134 138 131 172 185 174 166 90 131 195 212 221 237 233 218 212 203
285 304 4 349 342 359 161 164 146 155 143 139 139 115 134 152 163 164 160 168 174 173 181 183 166 160 153 153 140 176 130 160 143 160 189 214 126 108 343 124 193 224 235 252 261 251 235 230 231
44 331 333 1 313 285 188 132 216 199 187 143 163 152 155 163 173 174 167 173 175 172 184 193 170 157 176 155 136 163 156 157 154 141 242 169 170 177 209 172 188 193 189 264 231 181 304 283 277
280 326 318 354 301 192 201 65 343 226 64 60 117 157 159 168 178 179 171 175 175 190 175 193 173 167 189 169 172 171 155 162 177 155 226 157 214 159 246 223 166 216 195 115 223 153 273 287 271
307 0 334 358 158 213 190 195 167 188 114 114 127 153 160 171 180 177 176 166 187 190 176 183 170 178 178 191 163 166 153 185 172 176 180 204 227 191 199 151 220 202 195 169 211 207 80 299 290
16 322 242 198 185 219 229 195 261 178 141 137 147 155 163 172 174 174 175 177 198 193 180 170 182 181 182 193 145 181 169 164 215 184 162 209 253 209 178 198 204 227 202 237 220 234 167 239 250
294 294 243 196 208 208 215 241 225 350 169 157 162 166 167 175 172 182 189 196 179 195 180 173 188 178 187 180 172 189 135 211 201 198 198 226 228 191 281 206 223 223 185 229 232 207 221 210 241
280 250 316 121 189 169 226 138 163 170 207 171 176 175 181 182 187 189 184 178 190 196 174 183 188 172 178 177 184 138 192 216 198 212 207 198 209 236 209 203 213 111 206 204 227 208 209 204 215
181 324 340 328 204 191 221 230 158 182 192 188 184 189 194 190 198 189 189 189 168 187 175 187 184 180 177 168 191 189 171 216 205 207 207 182 209 218 255 224 148 221 215 232 299 262 237 207 254
335 322 329 338 153 229 241 244 167 190 196 203 205 207 201 202 199 193 195 189 179 175 183 192 181 173 182 171 198 194 194 213 212 212 212 196 224 209 223 227 260 251 259 247 132 257 200 273 239
307 310 308 12 45 251 253 263 242 198 213 211 214 216 211 209 194 189 194 188 182 184 185 186 191 168 183 189 194 192 198 213 211 216 217 214 229 212 200 247 214 240 257 292 281 247 222 226 208
283 298 354 120 106 234 275 270 251 225 214 220 212 219 220 191 192 196 188 189 191 187 189 190 191 178 190 193 200 207 213 182 211 225 201 228 227 205 213 253 248 246 283 240 259 277 290 245 258
264 286 1 344 271 231 280 255 238 225 222 216 224 220 220 215 191 188 194 192 194 186 192 189 190 181 190 198 191 183 182 226 221 221 205 223 209 189 210 214 271 269 273 262 235 238 272 289 175
284 29 286 273 276 352 315 322 154 183 211 223 217 221 219 205 219 194 190 193 193 190 188 188 188 186 186 193 199 205 209 193 213 216 220 262 202 192 201 222 223 224 255 319 237 228 290 267 229
16 304 293 310 278 313 141 260 108 195 214 197 212 215 214 207 207 192 186 187 189 183 185 185 187 188 190 190 223 199 222 192 175 235 218 253 190 218 234 218 238 232 263 232 273 257 240 212 300
263 236 229 220 248 172 87 329 275 44 355 314 204 204 194 200 193 189 182 177 182 178 183 183 185 193 195 194 202 213 205 218 212 199 211 226 217 199 213 226 231 241 228 243 233 223 232 273 287
227 248 246 243 215 91 120 302 325 341 346 328 238 178 179 191 179 179 177 181 178 181 184 183 185 192 193 193 197 203 209 206 213 231 222 249 230 224 205 206 225 222 221 233 230 204 229 238 248
208 268 295 281 288 0 137 244 11 316 305 24 136 165 169 177 174 179 177 183 183 184 186 189 185 194 193 197 203 200 213 216 216 212 243 237 247 240 214 244 216 220 224 220 212 218 229 208 235
186 233 293 295 228 253 72 25 127 96 124 110 116 155 164 170 180 186 175 178 186 186 188 190 188 196 198 199 201 203 206 227 222 228 217 229 244 256 235 238 203 221 223 221 213 244 227 238 234
259 335 218 213 269 261 131 263 58 139 141 125 149 156 164 172 181 191 184 184 184 184 186 195 192 195 200 205 202 206 210 214 224 225 227 242 247 246 248 256 246 221 226 221 219 252 230 242 234
172 223 235 301 308 302 224 128 41 78 159 156 151 161 163 171 180 182 195 185 180 184 184 191 195 194 199 203 207 211 212 215 221 229 227 233 235 238 235 235 240 252 239 220 229 225 233 235 245
266 263 219 233 184 240 315 318 90 114 170 170 161 169 156 169 172 179 179 179 183 186 187 192 195 200 205 203 205 209 214 221 224 227 232 232 232 230 235 234 238 236 249 251 241 239 248 216 232